De Soto, IL

5:19 PM CST on February 09, 2016 (GMT -0600)
Southern Illinois

Weather History for KMDH - December, 2012

Change the Weather History Date:

Friday, December 28, 2012

  Actual Average Record
Temperature  
Mean Temperature 32 °F -  
Max Temperature 37 °F 40 °F 68 °F (1928)
Min Temperature 27 °F 23 °F -10 °F (1924)
Degree Days  
Heating Degree Days 33    
Moisture  
Dew Point 29 °F    
Average Humidity 86    
Maximum Humidity 96    
Minimum Humidity 73    
Precipitation  
Precipitation 0.41 in - - ()
Sea Level Pressure  
Sea Level Pressure 29.95 in    
Wind  
Wind Speed 3 mph (NNE)    
Max Wind Speed 8 mph    
Max Gust Speed -    
Visibility 4 miles    
Events Fog , Rain , Snow    
Averages and records for this station are not official NWS values.
T = Trace of Precipitation, MM = Missing Value Source: NWS Daily Summary

Daily Weather History Graph

Daily Weather History Graph

Search for Another Location

Airport or City:

Trip Planner

Search our weather history database for the weather conditions in past years. The results will help you decide how hot, cold, wet, or windy it might be!

Date:

Astronomy

Dec. 28, 2012 Rise Set
Actual Time 7:11 AM CST 4:46 PM CST
Civil Twilight 6:42 AM CST 5:15 PM CST
Nautical Twilight 6:09 AM CST 5:48 PM CST
Astronomical Twilight 5:37 AM CST 6:20 PM CST
Moon 5:21 PM CST (12/28) 7:06 AM CST (12/28)
Length of Visible Light 10h 33m
Length of Day
9h 34m
Full, 100% of the Moon is Illuminated
Dec 28
Full
Jan 4
Last Quarter
Jan 11
New
Jan 18
First Quarter
Jan 26
Full

Hourly Weather History & Observations

Time (CST) Temp. Windchill Dew Point Humidity Pressure Visibility Wind Dir Wind Speed Gust Speed Precip Events Conditions
12:52 AM 28.0 °F - 24.1 °F 85% 30.10 in 10.0 mi Calm Calm - N/A   Clear
1:52 AM 27.0 °F 21.6 °F 23.0 °F 85% 30.09 in 10.0 mi ESE 4.6 mph - N/A   Clear
2:52 AM 28.9 °F - 25.0 °F 85% 30.08 in 9.0 mi Calm Calm - N/A   Overcast
3:52 AM 30.0 °F 25.2 °F 26.1 °F 85% 30.07 in 9.0 mi SSE 4.6 mph - N/A   Overcast
4:52 AM 30.0 °F - 26.1 °F 85% 30.08 in 7.0 mi Calm Calm - N/A   Overcast
5:52 AM 30.0 °F 26.5 °F 26.1 °F 85% 30.08 in 8.0 mi East 3.5 mph - N/A   Overcast
6:52 AM 30.0 °F 25.2 °F 26.1 °F 85% 30.08 in 7.0 mi ESE 4.6 mph - N/A   Overcast
8:52 AM 32.0 °F 26.4 °F 28.0 °F 85% 30.05 in 7.0 mi ESE 5.8 mph - N/A   Overcast
9:52 AM 34.0 °F - 28.0 °F 79% 30.05 in 9.0 mi Calm Calm - N/A   Mostly Cloudy
10:52 AM 35.1 °F - 28.9 °F 78% 30.04 in 9.0 mi Calm Calm - N/A   Overcast
11:52 AM 35.1 °F 31.0 °F 28.9 °F 78% 29.99 in 10.0 mi SSE 4.6 mph - N/A   Overcast
12:52 PM 36.0 °F 32.1 °F 28.9 °F 76% 29.96 in 10.0 mi Variable 4.6 mph - N/A   Overcast
1:52 PM 37.0 °F - 28.9 °F 73% 29.94 in 10.0 mi Calm Calm - N/A   Overcast
2:52 PM 36.0 °F 33.3 °F 28.9 °F 76% 29.91 in 10.0 mi East 3.5 mph - 0.00 in   Overcast
3:52 PM 35.1 °F 31.0 °F 30.0 °F 82% 29.90 in 3.0 mi ENE 4.6 mph - 0.01 in Rain Light Rain
4:45 PM 33.8 °F 28.6 °F 30.2 °F 87% 29.88 in 1.8 mi NNE 5.8 mph - 0.03 in Snow Light Snow
4:52 PM 34.0 °F 29.8 °F 30.9 °F 89% 29.89 in 1.8 mi NNE 4.6 mph - 0.03 in Snow Light Snow
4:59 PM 33.8 °F 29.6 °F 30.2 °F 87% 29.88 in 2.5 mi NNE 4.6 mph - 0.00 in Snow Light Snow
5:15 PM 33.8 °F 28.6 °F 30.2 °F 87% 29.88 in 1.5 mi NNE 5.8 mph - 0.02 in Snow Light Snow
5:52 PM 33.1 °F 28.7 °F 30.9 °F 92% 29.90 in 1.8 mi NNE 4.6 mph - 0.06 in Snow Light Snow
6:05 PM 33.8 °F 29.6 °F 30.2 °F 87% 29.89 in 0.8 mi NNE 4.6 mph - 0.02 in Snow Light Snow
6:18 PM 33.8 °F 29.6 °F 30.2 °F 87% 29.88 in 0.8 mi NNE 4.6 mph - 0.03 in Snow Light Snow
6:25 PM 33.8 °F 29.6 °F 30.2 °F 87% 29.88 in 0.8 mi North 4.6 mph - 0.05 in Snow Light Snow
7:31 PM 33.8 °F 27.7 °F 30.2 °F 87% 29.88 in 0.8 mi NNW 6.9 mph - 0.05 in Snow Light Snow
7:39 PM 33.8 °F 28.6 °F 30.2 °F 87% 29.88 in 1.0 mi NNW 5.8 mph - 0.05 in Snow Light Snow
7:47 PM 33.8 °F 28.6 °F 30.2 °F 87% 29.87 in 0.8 mi North 5.8 mph - 0.06 in Snow Light Snow
7:52 PM 33.1 °F 27.7 °F 30.9 °F 92% 29.89 in 0.8 mi North 5.8 mph - 0.06 in Snow Light Snow
8:43 PM 32.0 °F 25.6 °F 30.2 °F 93% 29.88 in 0.8 mi NNW 6.9 mph - 0.06 in Snow Light Snow
8:52 PM 32.0 °F 24.8 °F 30.9 °F 96% 29.89 in 0.8 mi NNW 8.1 mph - 0.08 in Snow Light Snow
9:52 PM 32.0 °F 27.5 °F 30.9 °F 96% 29.89 in 0.5 mi NW 4.6 mph - 0.08 in Fog , Snow Snow
10:35 PM 32.0 °F 25.6 °F 30.2 °F 93% 29.87 in 1.0 mi NW 6.9 mph - 0.05 in Snow Light Snow
10:52 PM 32.0 °F 24.8 °F 30.9 °F 96% 29.88 in 1.2 mi NW 8.1 mph - 0.06 in Snow Light Snow
11:52 PM 32.0 °F 24.8 °F 30.9 °F 96% 29.89 in 1.5 mi NW 8.1 mph - 0.03 in Snow Light Snow